Location: Unspecified
(56.5167°N, 0.0000°E)
Time: 13:38:40
(UTC+01:00)

Cosmos 2058 - Visible Passes

Search period start: 21 January 2018 00:00
Search period end: 31 January 2018 00:00
Orbit: 564 x 584 km, 82.5° (Epoch: 20 January)

Date Brightness Start Highest point End Pass type
(mag) Time Alt. Az. Time Alt. Az. Time Alt. Az.
21 Jan 5.0 05:37:40 17° NNE 05:39:56 27° ENE 05:43:33 10° ESE visible
21 Jan 3.1 07:13:54 16° NNW 07:17:05 47° W 07:21:08 10° SSW visible
21 Jan 3.6 19:44:46 10° S 19:47:37 39° SSE 19:47:37 39° SSE visible
21 Jan 5.7 21:22:46 10° WSW 21:23:56 16° WSW 21:23:56 16° WSW visible
22 Jan 4.6 05:41:26 23° NNE 05:43:16 32° ENE 05:47:04 10° SE visible
22 Jan 3.4 07:17:42 19° NW 07:20:16 38° W 07:24:10 10° SSW visible
22 Jan 4.8 18:14:41 10° E 18:15:56 11° E 18:15:56 11° E visible
22 Jan 2.8 19:47:54 10° S 19:52:05 71° E 19:52:14 70° E visible
22 Jan 5.6 21:26:26 10° WSW 21:28:33 18° WNW 21:28:33 18° WNW visible
23 Jan 4.2 05:45:21 32° NNE 05:46:34 39° ENE 05:50:32 10° SE visible
23 Jan 3.7 07:21:37 22° NW 07:23:26 31° W 07:27:07 10° SSW visible
23 Jan 4.6 18:16:53 10° ESE 18:19:03 14° E 18:20:30 12° ENE visible
23 Jan 2.8 19:51:06 10° S 19:55:18 88° E 19:56:48 40° NNE visible
23 Jan 5.7 21:30:11 10° W 21:32:54 17° WNW 21:33:06 16° NW visible
24 Jan 3.8 05:49:24 46° NE 05:49:52 48° ENE 05:53:57 10° SSE visible
24 Jan 3.9 07:25:41 23° WNW 07:26:34 25° W 07:30:01 10° SW visible
24 Jan 4.4 18:19:25 10° ESE 18:22:08 17° E 18:24:53 10° NE visible
24 Jan 3.0 19:54:21 10° SSW 19:58:33 75° WNW 20:01:14 22° N visible
24 Jan 5.9 21:34:03 10° W 21:36:18 14° NW 21:37:32 13° NW visible
25 Jan 3.5 05:53:37 56° ESE 05:53:37 56° ESE 05:57:18 10° SSE visible
25 Jan 4.2 07:29:54 20° W 07:29:54 20° W 07:32:49 10° SW visible
25 Jan 4.2 18:22:06 10° SE 18:25:14 21° E 18:28:24 10° NE visible
25 Jan 3.4 19:57:38 10° SSW 20:01:48 60° WNW 20:05:32 13° N visible
25 Jan 6.1 21:38:08 10° WNW 21:39:43 12° NW 21:41:18 10° NNW visible
26 Jan 4.0 05:57:59 37° SSE 05:57:59 37° SSE 06:00:35 10° SSE visible
26 Jan 4.7 07:34:16 14° WSW 07:34:16 14° WSW 07:35:31 10° WSW visible
26 Jan 4.0 18:24:55 10° SE 18:28:22 25° E 18:31:51 10° NNE visible
26 Jan 3.9 20:01:00 10° SSW 20:05:04 48° WNW 20:09:12 10° N visible
27 Jan 4.8 06:02:27 20° S 06:02:27 20° S 06:03:50 10° S visible
27 Jan 3.7 18:27:48 10° SSE 18:31:30 31° E 18:35:14 10° NNE visible
27 Jan 4.3 20:04:25 10° SW 20:08:22 39° WNW 20:12:22 10° N visible
28 Jan 3.5 18:30:46 10° SSE 18:34:40 38° E 18:38:36 10° NNE visible
28 Jan 4.7 20:07:52 10° SW 20:11:40 32° WNW 20:15:31 10° N visible
29 Jan 3.2 18:33:48 10° SSE 18:37:50 47° E 18:41:55 10° NNE visible
29 Jan 5.0 20:11:24 10° WSW 20:15:00 27° WNW 20:18:38 10° N visible
30 Jan 3.0 18:36:53 10° S 18:41:01 59° E 18:45:12 10° NNE visible
30 Jan 5.3 20:14:59 10° WSW 20:18:20 23° WNW 20:21:44 10° N visible
